GW4712 Weather Reports


time (UTC)temp
C
wind
direction
speed
KPH
gust
KPH
rain 1hr
cm
rain 24hr
cm
rain mn
cm
humidity
%
barometer
mb
20260905130347 21 43 0.0 0.0 0.30 0.94 0.94 99 1014.8
20260905125843 21 26 0.0 0.0 0.30 0.91 0.91 99 1015.1
20260905125337 21 8 0.0 0.0 0.30 0.89 0.89 99 1015.2
20260905124834 21 6 0.0 0.0 0.30 0.86 0.86 99 1015.4
20260905124330 21 6 0.0 0.0 0.18 0.84 0.84 99 1015.7
20260905123830 21 252 0.0 0.0 0.13 0.81 0.81 99 1015.5
20260905123327 21 222 0.0 0.0 0.13 0.81 0.81 99 1015.6
20260905122826 21 272 0.0 0.0 0.00 0.79 0.79 99 1015.9
20260905122326 21 277 0.0 0.0 0.18 0.79 0.79 99 1016.1
20260905121821 21 305 0.0 0.0 0.18 0.79 0.79 99 1016.3
20260905121318 21 16 0.0 1.6 0.18 0.76 0.76 99 1016.3
20260905120816 21 11 0.0 0.0 0.30 0.76 0.76 99 1016.3
20260905120311 21 20 0.0 0.0 0.61 0.74 0.74 99 1016.1
20260905115807 21 21 0.0 0.0 0.61 0.69 0.69 99 1015.8
20260905115306 21 20 0.0 0.0 0.61 0.64 0.64 99 1015.5
20260905114806 21 24 0.0 0.0 0.61 0.56 0.56 99 1015.3
20260905114305 20 24 0.0 0.0 1.07 0.53 0.53 99 1014.8
20260905113804 20 20 0.0 0.0 0.89 0.43 0.43 99 1015.1
20260905113300 20 20 0.0 0.0 0.61 0.33 0.33 99 1015.2
20260905112755 20 13 0.0 0.0 0.61 0.28 0.28 99 1014.7
20260905112249 20 13 0.0 0.0 1.37 0.23 0.23 99 1014.6
20260905111744 20 13 0.0 0.0 1.07 0.18 0.18 99 1014.3
20260905111239 20 12 0.0 0.0 0.00 0.00 0.00 99 1014.2
20260905110739 20 12 0.0 0.0 0.00 0.00 0.00 99 1014.0
20260905110233 20 12 0.0 0.0 0.00 0.00 0.00 99 1013.8
20260905105728 20 12 0.0 0.0 0.00 0.00 0.00 99 1013.7
20260905105227 20 12 0.0 0.0 0.00 0.00 0.00 99 1013.8
20260905104722 20 12 0.0 0.0 0.00 0.00 0.00 99 1014.0
20260905104219 20 12 0.0 0.0 0.00 0.00 0.00 99 1013.9
20260905103713 20 12 0.0 0.0 0.00 0.00 0.00 99 1014.0
20260905103209 20 12 0.0 0.0 0.00 0.00 0.00 99 1013.5
20260905102704 20 12 0.0 0.0 0.00 0.00 0.00 99 1013.8
20260905102201 20 12 0.0 0.0 0.00 0.00 0.00 99 1013.8
20260905101659 20 12 0.0 0.0 0.00 0.00 0.00 99 1013.8
20260905101158 20 12 0.0 0.0 0.00 0.00 0.00 99 1013.8
20260905100654 20 12 0.0 0.0 0.00 0.00 0.00 99 1013.8
20260905100149 20 12 0.0 0.0 0.00 0.00 0.00 99 1013.8
20260905095648 20 12 0.0 0.0 0.00 0.00 0.00 99 1013.8
20260905095143 20 12 0.0 0.0 0.00 0.00 0.00 99 1013.8
20260905094638 20 12 0.0 0.0 0.00 0.00 0.00 99 1013.5
20260905094138 20 12 0.0 0.0 0.00 0.00 0.00 99 1013.8
20260905093632 20 12 0.0 0.0 0.00 0.00 0.00 99 1013.8
20260905093128 20 12 0.0 0.0 0.00 0.00 0.00 99 1013.9
20260905092623 20 12 0.0 0.0 0.00 0.00 0.00 99 1013.9
20260905092119 20 12 0.0 0.0 0.00 0.00 0.00 99 1013.9
20260905091618 20 12 0.0 0.0 0.00 0.00 0.00 99 1013.8
20260905091113 20 13 0.0 0.0 0.00 0.00 0.00 99 1013.8
20260905090613 20 12 0.0 0.0 0.00 0.00 0.00 99 1014.1
20260905090109 20 12 0.0 0.0 0.00 0.00 0.00 99 1013.9
20260905085607 20 12 0.0 0.0 0.00 0.00 0.00 99 1013.7
20260905085103 20 12 0.0 0.0 0.00 0.00 0.00 99 1013.7
20260905084601 20 12 0.0 0.0 0.00 0.00 0.00 99 1013.7
20260905084056 20 12 0.0 0.0 0.00 0.00 0.00 99 1013.6
20260905083551 20 12 0.0 0.0 0.00 0.00 0.00 99 1013.7
20260905083048 20 12 0.0 0.0 0.00 0.00 0.00 99 1013.7
20260905082543 20 12 0.0 0.0 0.00 0.00 0.00 99 1013.8
20260905082039 20 12 0.0 0.0 0.00 0.00 0.00 99 1013.6
20260905081537 20 12 0.0 0.0 0.00 0.00 0.00 99 1013.9
20260905081032 20 12 0.0 0.0 0.00 0.00 0.00 99 1013.8
20260905080526 20 12 0.0 0.0 0.00 0.00 0.00 99 1014.0
20260905080022 20 12 0.0 0.0 0.00 0.00 0.00 99 1013.9
20260905075515 20 12 0.0 0.0 0.00 0.00 0.00 99 1013.9
20260905075014 20 12 0.0 0.0 0.00 0.00 0.00 99 1014.0
20260905074504 20 12 0.0 0.0 0.00 0.00 0.00 99 1014.0
20260905073959 20 12 0.0 0.0 0.00 0.00 0.00 99 1014.2
20260905073454 20 12 0.0 0.0 0.00 0.00 0.00 99 1014.2
20260905072950 20 12 0.0 0.0 0.00 0.00 0.00 99 1014.2
20260905072444 20 12 0.0 0.0 0.00 0.00 0.00 99 1014.2
20260905071940 20 12 0.0 0.0 0.00 0.00 0.00 99 1014.2
20260905071437 20 12 0.0 0.0 0.00 0.00 0.00 99 1014.1
20260905070936 20 12 0.0 0.0 0.00 0.00 0.00 99 1014.3
20260905070433 20 12 0.0 0.0 0.00 0.00 0.00 99 1014.2
20260905065932 20 12 0.0 0.0 0.00 0.00 0.00 99 1014.5
20260905065430 20 12 0.0 0.0 0.00 0.00 0.00 99 1014.4
20260905064926 20 13 0.0 0.0 0.00 0.00 0.00 99 1014.6
20260905064421 20 13 0.0 0.0 0.00 0.00 0.00 99 1014.6
20260905063920 20 13 0.0 0.0 0.00 0.00 0.00 99 1014.7
20260905063415 20 13 0.0 0.0 0.00 0.00 0.00 99 1014.9
20260905062912 20 13 0.0 0.0 0.00 0.00 0.00 99 1014.9
20260905062412 20 13 0.0 0.0 0.00 0.00 0.00 99 1015.2
20260905061907 20 13 0.0 0.0 0.00 0.00 0.00 99 1015.2
20260905061401 20 13 0.0 0.0 0.00 0.00 0.00 99 1015.4
20260905060901 20 13 0.0 0.0 0.00 0.00 0.00 99 1015.5
20260905060357 20 13 0.0 0.0 0.00 0.00 0.00 99 1015.5
20260905055856 20 13 0.0 0.0 0.00 0.00 0.00 99 1015.6
20260905055352 20 13 0.0 0.0 0.00 0.00 0.00 99 1015.7
20260905054851 20 13 0.0 0.0 0.00 0.00 0.00 99 1015.6
20260905054347 20 13 0.0 0.0 0.00 0.00 0.00 99 1015.9
20260905053847 21 13 0.0 0.0 0.00 0.00 0.00 99 1015.9
20260905053341 21 13 0.0 0.0 0.00 0.00 0.00 99 1015.9
20260905052837 21 13 0.0 0.0 0.00 0.00 0.00 99 1016.1
20260905052336 21 13 0.0 0.0 0.00 0.00 0.00 99 1016.1
20260905051836 20 13 0.0 0.0 0.00 0.00 0.00 99 1016.2
20260905051332 20 13 0.0 0.0 0.00 0.00 0.00 99 1016.2
20260905050830 20 13 0.0 0.0 0.00 0.00 0.00 99 1016.3
20260905050326 20 13 0.0 0.0 0.00 0.00 0.00 99 1016.2
20260905045825 20 13 0.0 0.0 0.00 0.00 0.00 99 1016.2
20260905045320 20 13 0.0 0.0 0.00 0.00 0.00 99 1016.1
20260905044816 20 13 0.0 0.0 0.00 0.00 0.00 99 1016.1
20260905044311 21 12 0.0 0.0 0.00 0.00 0.00 99 1016.0
20260905043809 20 12 0.0 0.0 0.00 0.00 0.00 99 1016.2
20260905043304 20 12 0.0 0.0 0.00 0.00 0.00 99 1016.0
20260905042805 20 13 0.0 0.0 0.00 0.00 0.00 99 1016.1
20260905042259 20 13 0.0 0.0 0.00 0.00 0.00 99 1016.3
20260905041754 20 13 0.0 0.0 0.00 0.00 0.00 99 1016.2
20260905041250 20 13 0.0 0.0 0.00 0.00 0.00 99 1016.2
20260905040750 20 13 0.0 0.0 0.00 0.00 0.00 99 1016.3
20260905040248 20 13 0.0 0.0 0.00 1.91 1.91 99 1016.4
20260905035743 20 13 0.0 0.0 0.00 1.91 1.91 99 1016.3
20260905035240 20 13 0.0 0.0 0.00 1.91 1.91 99 1016.3
20260905034737 21 13 0.0 0.0 0.00 1.91 1.91 99 1016.3
20260905034236 21 13 0.0 0.0 0.00 1.91 1.91 99 1016.5
20260905033735 21 13 0.0 0.0 0.00 1.91 1.91 99 1016.3
20260905033231 21 13 0.0 0.0 0.00 1.91 1.91 99 1016.2
20260905032730 21 13 0.0 0.0 0.00 1.91 1.91 99 1016.3
20260905032225 21 13 0.0 0.0 0.00 1.91 1.91 99 1016.3
20260905031721 21 13 0.0 0.0 0.00 1.91 1.91 99 1016.0
20260905031216 21 12 0.0 0.0 0.00 1.91 1.91 99 1016.2
20260905030711 21 12 0.0 0.0 0.00 1.91 1.91 99 1016.1
20260905030201 21 12 0.0 0.0 0.00 1.91 1.91 99 1016.3
20260905025656 21 12 0.0 0.0 0.00 1.91 1.91 99 1016.4
20260905025151 21 12 0.0 0.0 0.00 1.91 1.91 99 1016.4
20260905024647 21 12 0.0 0.0 0.00 1.91 1.91 99 1016.2
20260905024143 21 12 0.0 0.0 0.00 1.91 1.91 99 1016.5
20260905023638 21 12 0.0 0.0 0.00 1.91 1.91 99 1016.2
20260905023137 21 12 0.0 0.0 0.00 1.91 1.91 99 1016.3
20260905022636 21 12 0.0 0.0 0.00 1.91 1.91 99 1016.3
20260905022131 21 12 0.0 0.0 0.00 1.91 1.91 99 1016.4
20260905021625 21 12 0.0 0.0 0.00 1.91 1.91 99 1016.2
20260905021122 21 12 0.0 0.0 0.00 1.91 1.91 99 1016.1
20260905020621 21 12 0.0 0.0 0.00 1.91 1.91 99 1016.2
20260905020116 21 12 0.0 0.0 0.00 1.91 1.91 99 1015.8
20260905015614 21 12 0.0 0.0 0.00 1.91 1.91 99 1015.9
20260905015109 21 12 0.0 0.0 0.00 1.91 1.91 99 1015.8
20260905014603 21 12 0.0 0.0 0.00 1.91 1.91 99 1015.9
20260905014059 21 12 0.0 0.0 0.00 1.91 1.91 99 1015.6
20260905013555 21 12 0.0 0.0 0.00 1.91 1.91 99 1015.7
20260905013051 21 12 0.0 0.0 0.00 1.91 1.91 99 1015.8
20260905012550 21 12 0.0 0.0 0.00 1.91 1.91 99 1015.7
20260905012047 21 12 0.0 0.0 0.00 1.91 1.91 99 1015.7
20260905011543 21 12 0.0 0.0 0.00 1.91 1.91 99 1015.7
20260905011039 21 12 0.0 0.0 0.00 1.91 1.91 99 1015.6
20260905010539 21 12 0.0 0.0 0.00 1.91 1.91 99 1015.5
20260905010036 21 12 0.0 0.0 0.00 1.91 1.91 99 1015.5
20260905005536 21 12 0.0 0.0 0.00 1.91 1.91 99 1015.2
20260905005031 21 12 0.0 0.0 0.00 1.91 1.91 99 1015.2
20260905004526 21 12 0.0 0.0 0.00 1.91 1.91 99 1015.2
20260905004021 21 12 0.0 0.0 0.00 1.91 1.91 99 1015.1
20260905003517 22 12 0.0 0.0 0.00 1.91 1.91 99 1015.1
20260905003013 22 12 0.0 0.0 0.00 1.91 1.91 99 1014.9
20260905002508 22 12 0.0 0.0 0.00 1.91 1.91 99 1014.8
20260905002008 22 12 0.0 0.0 0.00 1.91 1.91 99 1015.1
20260905001502 22 12 0.0 0.0 0.00 1.91 1.91 99 1015.3
20260905000956 22 12 0.0 0.0 0.00 1.91 1.91 98 1015.3
20260905000454 22 12 0.0 0.0 0.00 1.91 1.91 98 1014.8
20260904235948 22 12 0.0 0.0 0.00 1.91 1.91 98 1014.8
20260904235444 22 13 0.0 0.0 0.00 1.91 1.91 98 1015.2
20260904234943 22 13 0.0 0.0 0.00 1.91 1.91 98 1014.9
20260904234443 22 13 0.0 0.0 0.00 1.91 1.91 98 1014.8
20260904233939 22 13 0.0 0.0 0.00 1.91 1.91 97 1014.9
20260904233434 23 12 0.0 0.0 0.00 1.91 1.91 96 1014.9
20260904232931 23 12 0.0 0.0 0.00 1.91 1.91 95 1015.1
20260904232427 23 12 0.0 0.0 0.00 1.91 1.91 94 1015.1
20260904231923 23 12 0.0 0.0 0.00 1.91 1.91 94 1014.8
20260904231424 23 192 0.0 0.0 0.00 1.91 1.91 94 1014.8
20260904230919 23 192 0.0 0.0 0.00 1.91 1.91 94 1015.1
20260904230417 23 197 0.0 0.0 0.00 1.91 1.91 94 1014.8
20260904225913 23 222 0.0 0.0 0.00 1.91 1.91 93 1015.3
20260904225411 23 222 0.0 0.0 0.00 1.91 1.91 94 1015.4
20260904224910 23 222 0.0 0.0 0.00 1.91 1.91 93 1015.2
20260904224406 23 222 0.0 0.0 0.00 1.91 1.91 91 1015.4
20260904223901 23 222 0.0 0.0 0.00 1.91 1.91 91 1015.4
20260904223400 24 222 0.0 0.0 0.00 1.91 1.91 91 1015.6
20260904222856 24 222 0.0 0.0 0.00 1.91 1.91 90 1015.6
20260904222351 24 109 0.0 0.0 0.00 1.91 1.91 89 1015.9
20260904221850 24 150 0.0 0.0 0.00 1.91 1.91 89 1015.9
20260904221345 25 112 0.0 0.0 0.00 1.91 1.91 88 1016.1
20260904220841 25 144 0.0 0.0 0.00 1.91 1.91 89 1016.0
20260904220339 24 305 0.0 0.0 0.00 1.91 1.91 90 1016.3
20260904215835 24 207 0.0 0.0 0.00 1.91 1.91 89 1016.5
20260904215330 25 268 0.0 0.0 0.00 1.91 1.91 89 1016.3
20260904214826 24 244 0.0 0.0 0.00 1.91 1.91 91 1016.4
20260904214322 24 121 0.0 0.0 0.00 1.91 1.91 90 1016.5
20260904213820 23 144 0.0 0.0 0.00 1.91 1.91 91 1016.5
20260904213315 23 224 0.0 0.0 0.00 1.91 1.91 92 1016.5
20260904212812 23 342 0.0 0.0 0.00 1.91 1.91 93 1016.4
20260904212311 23 139 0.0 1.6 0.00 1.91 1.91 92 1016.4
20260904211807 22 168 0.0 0.0 0.00 1.91 1.91 93 1016.5
20260904211301 23 226 0.0 0.0 0.00 1.91 1.91 94 1016.5
20260904210756 23 85 0.0 0.0 0.00 1.91 1.91 95 1016.7
20260904210250 23 317 0.0 0.0 0.00 1.91 1.91 96 1016.7
20260904205746 22 233 0.0 0.0 0.00 1.91 1.91 96 1016.4
20260904205242 22 155 0.0 0.0 0.00 1.91 1.91 96 1016.4
20260904204739 22 187 0.0 0.0 0.00 1.91 1.91 97 1016.6
20260904204234 22 198 0.0 0.0 0.00 1.91 1.91 97 1016.2
20260904203730 22 156 0.0 0.0 0.00 1.91 1.91 98 1016.2
20260904203226 21 71 0.0 0.0 0.00 1.91 1.91 99 1016.5
20260904202722 21 36 0.0 0.0 0.00 1.91 1.91 99 1016.4
20260904202218 21 177 0.0 0.0 0.00 1.91 1.91 99 1016.7
20260904201713 21 177 0.0 0.0 0.00 1.91 1.91 99 1017.1
20260904201208 21 60 0.0 0.0 0.00 1.91 1.91 99 1017.1
20260904200702 21 61 0.0 0.0 0.00 1.91 1.91 99 1016.6
20260904200152 21 61 0.0 0.0 0.00 1.91 1.91 99 1016.8
20260904195650 21 61 0.0 0.0 0.00 1.91 1.91 99 1016.7
20260904195149 21 61 0.0 0.0 0.00 1.91 1.91 99 1016.6
20260904194643 21 61 0.0 0.0 0.00 1.91 1.91 99 1016.6
20260904194138 21 322 0.0 0.0 0.00 1.91 1.91 99 1016.6
20260904193632 21 294 0.0 0.0 0.00 1.91 1.91 99 1016.8
20260904193129 21 294 0.0 0.0 0.00 1.91 1.91 99 1017.0
20260904192629 21 294 0.0 0.0 0.00 1.91 1.91 99 1017.3
20260904192124 21 294 0.0 0.0 0.00 1.91 1.91 99 1017.4
20260904191621 21 295 0.0 0.0 0.00 1.91 1.91 99 1017.6
20260904191118 21 236 0.0 0.0 0.00 1.91 1.91 99 1017.7
20260904190613 21 261 0.0 0.0 0.00 1.91 1.91 99 1018.1
20260904190104 21 84 0.0 0.0 0.30 1.91 1.91 98 1018.0
20260904185600 21 237 0.0 1.6 5.94 1.91 1.91 97 1017.9
20260904185054 21 251 0.0 1.6 11.15 1.85 1.85 96 1018.8
20260904184548 22 310 0.0 9.7 5.51 0.91 0.91 95 1019.3
20260904184044 29 35 12.9 40.2 0.00 0.00 0.00 79 1017.2
20260904183544 30 271 0.0 0.0 0.00 0.00 0.00 80 1015.5
20260904183039 30 271 0.0 0.0 0.00 0.00 0.00 78 1014.9
20260904182534 31 271 0.0 0.0 0.00 0.00 0.00 74 1015.3
20260904182029 31 302 0.0 0.0 0.00 0.00 0.00 72 1014.9
20260904181525 31 307 0.0 0.0 0.00 0.00 0.00 69 1014.8
20260904181025 32 267 0.0 0.0 0.00 0.00 0.00 67 1014.8
20260904180519 32 249 0.0 0.0 0.00 0.00 0.00 68 1015.2
20260904180014 32 251 0.0 0.0 0.00 0.00 0.00 67 1015.3
20260904175508 32 249 0.0 0.0 0.00 0.00 0.00 69 1015.5
20260904175001 32 305 0.0 0.0 0.00 0.00 0.00 70 1015.5
20260904174457 31 250 0.0 0.0 0.00 0.00 0.00 69 1015.8
20260904173954 32 300 0.0 0.0 0.00 0.00 0.00 69 1016.0
20260904173453 32 246 0.0 0.0 0.00 0.00 0.00 68 1016.1
20260904172948 32 239 0.0 0.0 0.00 0.00 0.00 67 1016.1
20260904172443 32 246 0.0 1.6 0.00 0.00 0.00 67 1016.4
20260904171938 32 238 0.0 0.0 0.00 0.00 0.00 71 1016.4
20260904171434 32 307 0.0 0.0 0.00 0.00 0.00 70 1016.7
20260904170930 32 296 0.0 0.0 0.00 0.00 0.00 69 1016.7
20260904170424 32 237 0.0 0.0 0.00 0.00 0.00 69 1016.8
20260904165920 32 218 0.0 1.6 0.00 0.00 0.00 69 1016.7
20260904165419 32 265 0.0 0.0 0.00 0.00 0.00 70 1016.8
20260904164913 32 175 0.0 0.0 0.00 0.00 0.00 70 1016.7
20260904164413 32 340 0.0 0.0 0.00 0.00 0.00 69 1016.7
20260904163909 31 7 0.0 0.0 0.00 0.00 0.00 69 1017.1
20260904163409 31 250 0.0 0.0 0.00 0.00 0.00 69 1016.8
20260904162908 31 278 0.0 0.0 0.00 0.00 0.00 71 1017.0
20260904162404 31 311 0.0 0.0 0.00 0.00 0.00 72 1017.0
20260904161859 31 275 0.0 0.0 0.00 0.00 0.00 74 1016.9
20260904161354 31 286 0.0 0.0 0.00 0.00 0.00 70 1017.0
20260904160850 31 284 0.0 0.0 0.00 0.00 0.00 74 1017.2
20260904160344 31 263 0.0 0.0 0.00 0.00 0.00 73 1017.2
20260904155839 31 282 0.0 0.0 0.00 0.00 0.00 73 1017.3
20260904155334 31 277 0.0 0.0 0.00 0.00 0.00 74 1017.1
20260904154832 30 7 0.0 0.0 0.00 0.00 0.00 76 1017.1
20260904154327 30 260 0.0 0.0 0.00 0.00 0.00 73 1017.3
20260904153823 30 1 0.0 0.0 0.00 0.00 0.00 76 1017.4
20260904153318 30 256 0.0 0.0 0.00 0.00 0.00 77 1017.2
20260904152815 30 22 0.0 0.0 0.00 0.00 0.00 78 1017.2
20260904152309 30 301 0.0 0.0 0.00 0.00 0.00 78 1017.3
20260904151804 30 256 0.0 0.0 0.00 0.00 0.00 77 1017.4
20260904151303 29 253 0.0 0.0 0.00 0.00 0.00 77 1017.2
20260904150800 29 275 0.0 0.0 0.00 0.00 0.00 78 1017.2
20260904150254 29 154 0.0 0.0 0.00 0.00 0.00 80 1017.2
20260904145752 29 346 0.0 0.0 0.00 0.00 0.00 79 1017.2
20260904145248 28 281 0.0 0.0 0.00 0.00 0.00 81 1017.3
20260904144743 28 277 0.0 0.0 0.00 0.00 0.00 81 1017.0
20260904144239 28 219 0.0 0.0 0.00 0.00 0.00 83 1017.4
20260904143734 28 152 0.0 0.0 0.00 0.00 0.00 83 1017.1
20260904143232 28 156 0.0 0.0 0.00 0.00 0.00 85 1017.3
20260904142727 27 158 0.0 0.0 0.00 0.00 0.00 84 1017.3
20260904142223 27 162 0.0 0.0 0.00 0.00 0.00 84 1017.4
20260904141723 27 219 0.0 0.0 0.00 0.00 0.00 84 1017.1
20260904141219 27 123 0.0 0.0 0.00 0.00 0.00 86 1017.3
20260904140714 27 225 0.0 0.0 0.00 0.00 0.00 86 1017.4
20260904140209 26 139 0.0 0.0 0.00 0.00 0.00 88 1017.5
20260904135708 26 138 0.0 0.0 0.00 0.00 0.00 88 1017.4
20260904135203 26 138 0.0 0.0 0.00 0.00 0.00 89 1017.5
20260904134659 26 51 0.0 0.0 0.00 0.00 0.00 90 1017.7
20260904134158 25 50 0.0 0.0 0.00 0.00 0.00 91 1017.6
20260904133653 25 50 0.0 0.0 0.00 0.00 0.00 93 1017.7
20260904133150 25 50 0.0 0.0 0.00 0.00 0.00 93 1017.8
20260904132649 24 50 0.0 0.0 0.00 0.00 0.00 94 1017.7
20260904132144 24 50 0.0 0.0 0.00 0.00 0.00 93 1017.8
20260904131643 24 50 0.0 0.0 0.00 0.00 0.00 93 1017.6
20260904131139 23 49 0.0 0.0 0.00 0.00 0.00 94 1017.9
20260904130638 23 51 0.0 0.0 0.00 0.00 0.00 95 1017.9